Location: Park Creek Village Mobile Home Park
(38.2885°N, 122.4714°W)
Time: 06:16:36
(UTC+00:00)

Cosmos 1536 - Pass Details

Date: 14 December 2019
Orbit: 540 x 559 km, 82.5° (Epoch: 18 January)

Event Time Altitude Azimuth Distance (km) Brightness Sun altitude
Rises 14:28:05 0° 199° (SSW) 2,731 6.4 -9.8°
Reaches altitude 10° 14:30:18 10° 205° (SSW) 1,840 5.5 -9.4°
Maximum altitude 14:34:13 47° 280° (W) 742 3.1 -8.7°
Drops below altitude 10° 14:38:10 10° 355° (N) 1,849 5.2 -8.0°
Sets 14:40:25 0° 1° (N) 2,746 6.2 -7.6°
